CW4185 Weather Reports


time (UTC)temp
F
wind
direction
speed
knots
gust
knots
rain 1hr
in
rain 24hr
in
rain mn
in
humidity
%
barometer
mb
20260902204646 78 15 1.7 6.1 0.05 0.00 0.66 96 1015.6
20260902204147 78 289 5.2 7.8 0.12 0.00 0.66 96 1015.2
20260902203646 78 305 7.0 7.8 0.28 0.00 0.65 97 1015.6
20260902203147 78 298 7.0 10.4 0.76 0.00 0.64 97 1015.6
20260902202646 78 289 7.0 7.8 1.61 0.00 0.60 97 1015.9
20260902202148 78 259 2.6 3.5 0.94 0.00 0.49 97 1015.9
20260902201646 78 238 4.3 7.0 0.07 0.00 0.33 96 1015.9
20260902201147 78 279 9.6 12.2 0.97 0.00 0.33 97 1015.6
20260902200647 78 269 7.8 12.2 1.84 0.00 0.31 97 1015.2
20260902200146 80 201 10.4 15.6 1.11 0.00 0.18 94 1015.6
20260902195646 82 176 6.1 13.0 0.00 0.00 0.00 87 1015.6
20260902195146 84 209 7.8 13.0 0.00 0.00 0.00 85 1015.2
20260902194646 84 213 6.1 13.9 0.00 0.00 0.00 83 1015.6
20260902194146 84 244 4.3 11.3 0.00 0.00 0.00 83 1015.2
20260902193646 85 206 6.1 11.3 0.00 0.00 0.00 81 1015.6
20260902193146 86 188 7.0 8.7 0.00 0.00 0.00 80 1015.6
20260902192647 86 197 7.0 11.3 0.00 0.00 0.00 78 1015.6
20260902192147 90 202 6.1 11.3 0.00 0.00 0.00 69 1015.6
20260902191648 93 175 8.7 8.7 0.00 0.00 0.00 62 1015.6
20260902191150 94 129 0.9 7.0 0.00 0.00 0.00 61 1015.2
20260902190647 94 173 2.6 4.3 0.00 0.00 0.00 61 1015.2
20260902190146 94 162 4.3 7.8 0.00 0.00 0.00 59 1015.6
20260902185646 94 198 1.7 3.5 0.00 0.00 0.00 60 1015.6
20260902185147 93 55 0.9 4.3 0.00 0.00 0.00 60 1015.9
20260902184646 93 58 3.5 7.8 0.00 0.00 0.00 58 1015.9
20260902184146 93 50 4.3 6.1 0.00 0.00 0.00 60 1015.9
20260902183647 92 65 3.5 4.3 0.00 0.00 0.00 62 1015.9
20260902183146 93 96 4.3 5.2 0.00 0.00 0.00 62 1016.3
20260902182646 92 79 3.5 5.2 0.00 0.00 0.00 60 1016.3
20260902182149 92 24 4.3 7.8 0.00 0.00 0.00 60 1016.3
20260902181647 92 58 3.5 7.0 0.00 0.00 0.00 59 1015.9
20260902181148 92 52 1.7 5.2 0.00 0.00 0.00 63 1015.9
20260902180647 92 174 1.7 5.2 0.00 0.00 0.00 64 1015.9
20260902180148 91 47 3.5 8.7 0.00 0.00 0.00 63 1016.3
20260902175648 91 28 4.3 7.8 0.00 0.00 0.00 65 1016.3
20260902175147 91 70 6.1 7.0 0.00 0.00 0.00 65 1015.9
20260902174647 91 78 5.2 7.8 0.00 0.00 0.00 67 1016.3
20260902173714 91 40 5.2 9.6 0.00 0.00 0.00 67 1016.6
20260902173147 90 27 5.2 8.7 0.00 0.00 0.00 68 1016.6
20260902172649 91 19 5.2 8.7 0.00 0.00 0.00 68 1016.6
20260902172147 91 54 4.3 8.7 0.00 0.00 0.00 67 1016.6
20260902171647 91 44 5.2 7.0 0.00 0.00 0.00 69 1016.9
20260902171147 90 79 4.3 7.8 0.00 0.00 0.00 69 1016.9
20260902170646 90 46 5.2 6.1 0.00 0.00 0.00 70 1016.9
20260902170146 90 32 4.3 6.1 0.00 0.00 0.00 71 1016.9
20260902165647 89 44 3.5 9.6 0.00 0.00 0.00 72 1017.3
20260902165150 89 58 3.5 6.1 0.00 0.00 0.00 72 1016.9
20260902164646 89 28 2.6 4.3 0.00 0.00 0.00 75 1016.9
20260902164146 90 358 1.7 5.2 0.00 0.00 0.00 72 1017.3
20260902163649 90 324 2.6 6.1 0.00 0.00 0.00 72 1017.3
20260902163146 90 16 4.3 6.1 0.00 0.00 0.00 72 1017.3
20260902162648 90 45 0.0 7.0 0.00 0.00 0.00 72 1017.3
20260902162150 90 13 4.3 7.8 0.00 0.00 0.00 71 1017.6
20260902161646 90 39 4.3 7.0 0.00 0.00 0.00 72 1017.6
20260902161147 89 43 3.5 7.8 0.00 0.00 0.00 72 1017.3
20260902160646 89 25 0.0 4.3 0.00 0.00 0.00 73 1017.3
20260902160147 90 34 4.3 5.2 0.00 0.00 0.00 72 1017.3
20260902155646 89 56 3.5 5.2 0.00 0.00 0.00 70 1017.3
20260902155146 89 64 3.5 5.2 0.00 0.00 0.00 70 1017.3
20260902154647 90 80 3.5 6.1 0.00 0.00 0.00 70 1017.6
20260902154147 90 334 1.7 7.0 0.00 0.00 0.00 70 1017.3
20260902153205 90 54 2.6 5.2 0.00 0.00 0.00 70 1017.6
20260902152647 90 52 2.6 5.2 0.00 0.00 0.00 71 1017.3
20260902152148 89 35 1.7 4.3 0.00 0.00 0.00 73 1017.3
20260902151647 88 166 2.6 5.2 0.00 0.00 0.00 76 1017.3
20260902151147 88 35 4.3 6.1 0.00 0.00 0.00 74 1017.3
20260902150647 88 33 4.3 6.1 0.00 0.00 0.00 75 1017.3
20260902150147 88 56 2.6 5.2 0.00 0.00 0.00 76 1017.3
20260902145647 87 42 0.9 6.1 0.00 0.00 0.00 78 1017.3
20260902145146 88 360 1.7 6.1 0.00 0.00 0.00 76 1017.3
20260902144646 88 46 2.6 5.2 0.00 0.00 0.00 78 1017.3
20260902144146 88 26 2.6 6.1 0.00 0.00 0.00 77 1017.3
20260902143648 88 44 1.7 2.6 0.00 0.00 0.00 77 1017.3
20260902143146 87 85 1.7 4.3 0.00 0.00 0.00 79 1017.3
20260902142647 87 357 1.7 4.3 0.00 0.00 0.00 78 1017.3
20260902142147 87 92 3.5 5.2 0.00 0.00 0.00 80 1017.3
20260902141647 87 66 4.3 6.1 0.00 0.00 0.00 80 1017.6
20260902141147 87 49 2.6 5.2 0.00 0.00 0.00 80 1017.3
20260902140649 86 29 3.5 7.0 0.00 0.00 0.00 81 1017.3
20260902140147 86 65 5.2 5.2 0.00 0.00 0.00 82 1017.3
20260902135647 87 66 4.3 5.2 0.00 0.00 0.00 81 1017.3
20260902135146 87 341 0.0 2.6 0.00 0.00 0.00 81 1017.3
20260902134647 86 58 1.7 3.5 0.00 0.00 0.00 83 1017.3
20260902134148 86 69 3.5 4.3 0.00 0.00 0.00 83 1017.3
20260902133646 86 84 0.0 3.5 0.00 0.00 0.00 83 1016.9
20260902133147 86 5 0.9 1.7 0.00 0.00 0.00 83 1016.9
20260902132646 85 67 1.7 2.6 0.00 0.00 0.00 86 1017.3
20260902132146 84 62 2.6 4.3 0.00 0.00 0.00 87 1016.9
20260902131647 85 32 2.6 2.6 0.00 0.00 0.00 86 1016.9
20260902131147 84 13 0.0 2.6 0.00 0.00 0.00 87 1017.3
20260902130646 84 46 0.9 2.6 0.00 0.00 0.00 88 1016.9
20260902130150 83 279 0.0 3.5 0.00 0.00 0.00 90 1017.3
20260902125647 82 348 1.7 4.3 0.00 0.00 0.00 91 1016.9
20260902125147 82 2 1.7 3.5 0.00 0.00 0.00 91 1016.6
20260902124647 82 38 3.5 4.3 0.00 0.00 0.00 91 1016.9
20260902124147 82 16 0.9 3.5 0.00 0.00 0.00 91 1016.6
20260902123647 83 335 2.6 3.5 0.00 0.00 0.00 90 1016.9
20260902123146 84 166 0.0 2.6 0.00 0.00 0.00 89 1016.6
20260902122650 83 37 0.9 4.3 0.00 0.00 0.00 90 1016.3
20260902122147 83 31 2.6 4.3 0.00 0.00 0.00 91 1016.6
20260902121646 82 19 3.5 4.3 0.00 0.00 0.00 91 1016.6
20260902121146 82 359 2.6 4.3 0.00 0.00 0.00 92 1016.6
20260902120213 81 61 2.6 5.2 0.00 0.00 0.00 94 1016.6
20260902115646 81 40 2.6 4.3 0.00 0.00 0.00 95 1016.3
20260902115147 80 7 1.7 3.5 0.00 0.00 0.00 95 1016.3
20260902114646 80 163 1.7 2.6 0.00 0.00 0.00 96 1016.3
20260902114146 80 38 1.7 2.6 0.00 0.00 0.00 97 1016.3
20260902113646 79 331 0.9 2.6 0.00 0.00 0.00 97 1015.9
20260902113147 79 209 0.9 1.7 0.00 0.00 0.00 96 1016.3
20260902112647 80 227 0.9 1.7 0.00 0.00 0.00 96 1015.9
20260902112147 80 195 0.0 0.9 0.00 0.00 0.00 95 1015.9
20260902111647 80 135 0.0 0.9 0.00 0.00 0.00 95 1015.9
20260902111146 80 117 0.0 1.7 0.00 0.00 0.00 96 1015.9
20260902110647 79 44 0.0 1.7 0.00 0.00 0.00 96 1015.9
20260902110147 79 190 0.0 0.0 0.00 0.00 0.00 96 1015.9
20260902105647 80 201 0.0 0.9 0.00 0.00 0.00 96 1015.9
20260902105150 80 224 0.0 0.9 0.00 0.00 0.00 95 1015.9
20260902104646 80 157 0.0 0.9 0.00 0.00 0.00 95 1015.6
20260902104147 80 117 0.0 0.0 0.00 0.00 0.00 95 1015.6
20260902103647 80 23 0.0 1.7 0.00 0.00 0.00 96 1015.6
20260902103146 80 157 0.0 0.9 0.00 0.00 0.00 95 1015.6
20260902102646 80 218 0.0 0.9 0.00 0.00 0.00 95 1015.6
20260902102146 80 142 0.0 0.9 0.00 0.00 0.00 95 1015.6
20260902101646 80 104 0.0 0.9 0.00 0.00 0.00 95 1015.6
20260902101147 80 22 0.9 1.7 0.00 0.00 0.00 96 1015.6
20260902100646 80 135 0.0 0.9 0.00 0.00 0.00 95 1015.6
20260902100147 80 89 0.0 0.9 0.00 0.00 0.00 95 1015.6
20260902095646 79 217 0.0 0.9 0.00 0.00 0.00 95 1015.6
20260902095147 80 135 0.0 0.0 0.00 0.00 0.00 95 1015.6
20260902094646 80 135 0.0 0.9 0.00 0.00 0.00 95 1015.6
20260902094147 79 42 0.9 1.7 0.00 0.00 0.00 95 1015.2
20260902093647 79 124 0.0 1.7 0.00 0.00 0.00 96 1015.2
20260902093146 79 242 0.0 0.9 0.00 0.00 0.00 96 1015.2
20260902092647 79 213 1.7 1.7 0.00 0.00 0.00 96 1015.2
20260902092146 79 216 0.9 0.9 0.00 0.00 0.00 95 1015.2
20260902091647 79 224 0.0 0.9 0.00 0.00 0.00 95 1015.6
20260902091146 80 221 0.9 0.9 0.00 0.00 0.00 95 1015.2
20260902090647 80 215 0.9 1.7 0.00 0.00 0.00 95 1015.2
20260902090146 80 201 0.9 0.9 0.00 0.00 0.00 94 1015.2
20260902085646 80 205 0.0 1.7 0.00 0.00 0.00 93 1015.2
20260902085147 80 89 0.0 1.7 0.00 0.00 0.00 94 1015.2
20260902084647 80 75 1.7 2.6 0.00 0.00 0.00 94 1015.2
20260902084147 80 67 0.9 1.7 0.00 0.00 0.00 94 1015.2
20260902083646 80 89 0.9 1.7 0.00 0.00 0.00 94 1015.2
20260902083147 80 72 0.9 1.7 0.00 0.00 0.00 94 1014.9
20260902082646 79 87 0.0 1.7 0.00 0.00 0.00 95 1015.2
20260902082146 79 103 1.7 2.6 0.00 0.00 0.00 96 1014.9
20260902081646 79 199 0.0 0.9 0.00 0.00 0.00 95 1015.2
20260902081147 79 233 1.7 1.7 0.00 0.00 0.00 96 1015.2
20260902080646 79 226 0.9 1.7 0.00 0.00 0.00 95 1015.2
20260902080146 79 214 0.0 1.7 0.00 0.00 0.00 95 1015.2
20260902075646 79 218 0.0 0.9 0.00 0.00 0.00 95 1015.2
20260902075147 79 230 0.0 1.7 0.00 0.00 0.00 95 1015.2
20260902074647 79 236 0.9 1.7 0.00 0.00 0.00 95 1014.9
20260902074146 79 227 0.9 0.9 0.00 0.00 0.00 94 1015.2
20260902073648 80 234 0.0 0.9 0.00 0.00 0.00 94 1015.2
20260902073148 80 226 0.9 1.7 0.00 0.00 0.00 94 1015.2
20260902072646 80 215 0.9 1.7 0.00 0.00 0.00 94 1015.2
20260902072147 80 194 0.9 1.7 0.00 0.00 0.00 94 1015.2
20260902071647 80 176 0.9 0.9 0.00 0.00 0.00 93 1015.2
20260902071146 80 186 0.9 1.7 0.00 0.00 0.00 93 1015.2
20260902070646 80 169 1.7 1.7 0.00 0.00 0.00 93 1015.6
20260902070147 80 186 0.0 1.7 0.00 0.00 0.00 93 1015.6
20260902065646 80 178 0.9 1.7 0.00 0.00 0.00 93 1015.6
20260902065146 80 185 0.9 1.7 0.00 0.00 0.00 93 1015.2
20260902064646 80 177 1.7 1.7 0.00 0.00 0.00 93 1015.6
20260902064146 80 179 0.9 1.7 0.00 0.00 0.00 92 1015.6
20260902063650 80 180 0.9 1.7 0.00 0.00 0.00 92 1015.6
20260902063146 80 176 0.9 1.7 0.00 0.00 0.00 92 1015.6
20260902062646 80 201 0.9 1.7 0.00 0.00 0.00 92 1015.6
20260902062147 80 177 0.9 1.7 0.00 0.00 0.00 92 1015.6
20260902061647 80 163 1.7 1.7 0.00 0.00 0.00 91 1015.6
20260902061146 80 185 0.9 1.7 0.00 0.00 0.00 91 1015.6
20260902060647 80 170 1.7 1.7 0.00 0.00 0.00 91 1015.6
20260902060149 81 170 1.7 1.7 0.00 0.00 0.00 91 1015.6
20260902055649 81 184 0.9 2.6 0.00 0.00 0.00 90 1015.9
20260902055146 81 160 1.7 1.7 0.00 0.00 0.00 90 1015.6
20260902054646 81 166 0.9 2.6 0.00 0.00 0.00 89 1015.6
20260902054147 81 152 1.7 2.6 0.00 0.00 0.00 89 1015.6
20260902053646 81 140 2.6 2.6 0.00 0.00 0.00 90 1015.9
20260902053147 81 66 0.9 1.7 0.00 0.00 0.00 89 1015.6
20260902052647 81 166 0.0 1.7 0.00 0.00 0.00 89 1015.9
20260902052147 81 130 0.9 1.7 0.00 0.00 0.00 89 1015.9
20260902051647 81 72 0.9 1.7 0.00 0.00 0.00 90 1015.9
20260902051147 81 77 0.0 1.7 0.00 0.00 0.00 90 1015.9
20260902050648 81 15 0.0 0.9 0.00 0.00 0.00 90 1015.6
20260902050146 81 67 0.0 0.9 0.00 0.00 0.00 90 1015.9
20260902045647 81 120 0.0 1.7 0.00 0.00 0.29 90 1015.6
20260902045146 81 40 0.0 1.7 0.00 0.00 0.29 89 1015.6
20260902044647 81 93 1.7 2.6 0.00 0.00 0.29 89 1015.6
20260902044146 81 153 2.6 3.5 0.00 0.00 0.29 89 1015.6
20260902043646 82 145 2.6 3.5 0.00 0.00 0.29 89 1015.9
20260902043147 82 140 2.6 2.6 0.00 0.00 0.29 89 1015.9
20260902042646 82 122 0.9 3.5 0.00 0.00 0.29 89 1015.6
20260902042146 82 157 1.7 3.5 0.00 0.00 0.29 89 1015.9
20260902041646 82 153 2.6 2.6 0.00 0.00 0.29 89 1015.6
20260902041147 82 160 2.6 3.5 0.00 0.00 0.29 89 1015.9
20260902040646 82 162 1.7 3.5 0.00 0.00 0.29 88 1015.9
20260902040147 82 139 1.7 2.6 0.00 0.00 0.29 88 1015.9
20260902035648 82 141 2.6 2.6 0.00 0.00 0.29 89 1015.9
20260902035147 82 153 0.9 2.6 0.00 0.00 0.29 89 1016.3
20260902034647 82 171 2.6 3.5 0.00 0.00 0.29 89 1016.3
20260902034146 82 133 2.6 2.6 0.00 0.00 0.29 89 1015.9
20260902033647 82 168 1.7 2.6 0.00 0.00 0.29 89 1015.9
20260902033147 82 149 1.7 2.6 0.00 0.00 0.29 88 1016.3
20260902032649 82 129 0.0 2.6 0.00 0.00 0.29 88 1016.3
20260902032146 82 97 1.7 4.3 0.00 0.00 0.29 88 1016.3
20260902031652 82 169 1.7 2.6 0.00 0.00 0.29 89 1016.3
20260902031147 82 162 0.0 1.7 0.00 0.00 0.29 88 1016.6
20260902030647 82 168 0.9 1.7 0.00 0.00 0.29 88 1016.6
20260902030147 82 98 0.0 1.7 0.00 0.00 0.29 88 1016.6
20260902025646 82 104 0.0 3.5 0.00 0.00 0.29 89 1016.3
20260902025146 82 155 2.6 3.5 0.00 0.00 0.29 89 1016.6
20260902024646 82 166 1.7 2.6 0.00 0.00 0.29 88 1016.3
20260902024146 82 148 0.0 1.7 0.00 0.00 0.29 87 1016.3
20260902023647 82 287 0.0 1.7 0.00 0.00 0.29 87 1016.3
20260902023147 82 146 1.7 1.7 0.00 0.00 0.29 88 1016.3
20260902022647 82 155 2.6 3.5 0.00 0.00 0.29 88 1016.3
20260902022148 82 169 1.7 2.6 0.00 0.00 0.29 87 1015.9
20260902021646 82 171 1.7 2.6 0.00 0.00 0.29 87 1015.9
20260902021146 82 160 0.0 2.6 0.00 0.00 0.29 86 1015.9
20260902020646 82 153 0.9 2.6 0.00 0.00 0.29 86 1015.6
20260902020146 82 141 1.7 2.6 0.00 0.00 0.29 86 1015.9
20260902015646 83 246 0.0 1.7 0.00 0.00 0.29 85 1015.9
20260902015147 83 118 0.9 4.3 0.00 0.00 0.29 85 1015.6
20260902014647 83 64 1.7 2.6 0.00 0.00 0.29 85 1015.6
20260902014146 83 107 0.0 1.7 0.00 0.00 0.29 85 1015.6
20260902013646 82 59 0.0 2.6 0.00 0.00 0.29 85 1015.6
20260902013146 82 169 0.0 2.6 0.00 0.00 0.29 85 1015.6
20260902012647 82 153 2.6 2.6 0.00 0.00 0.29 85 1015.2
20260902012146 82 167 2.6 2.6 0.00 0.00 0.29 84 1015.2
20260902011647 82 147 2.6 2.6 0.00 0.00 0.29 84 1015.2
20260902011147 82 167 1.7 2.6 0.00 0.00 0.29 84 1015.2
20260902010646 82 149 1.7 1.7 0.00 0.00 0.29 84 1015.2
20260902010146 82 136 1.7 1.7 0.00 0.00 0.29 84 1015.2
20260902005646 83 89 0.0 0.9 0.00 0.00 0.29 83 1015.2
20260902005148 83 191 0.0 1.7 0.00 0.00 0.29 83 1014.9
20260902004647 83 172 1.7 1.7 0.00 0.00 0.29 83 1015.2
20260902004146 83 189 1.7 1.7 0.00 0.00 0.29 83 1015.2
20260902003646 83 158 0.0 0.9 0.00 0.00 0.29 83 1015.2
20260902003147 83 159 1.7 2.6 0.00 0.00 0.29 82 1014.9
20260902002646 83 170 1.7 2.6 0.00 0.00 0.29 82 1015.2
20260902002147 83 165 2.6 2.6 0.00 0.00 0.29 81 1014.9
20260902001647 84 141 0.0 2.6 0.00 0.00 0.29 80 1015.2
20260902001147 84 154 0.0 1.7 0.00 0.00 0.29 80 1014.9
20260902000646 83 157 1.7 2.6 0.00 0.00 0.29 80 1014.9
20260902000146 84 179 1.7 2.6 0.00 0.00 0.29 79 1014.9
20260901235647 84 139 1.7 3.5 0.00 0.00 0.29 79 1014.9
20260901235146 84 123 0.9 1.7 0.00 0.00 0.29 80 1014.9
20260901234646 84 217 0.0 1.7 0.00 0.00 0.29 80 1014.9
20260901234146 84 177 1.7 1.7 0.00 0.00 0.29 79 1014.9
20260901233646 83 174 1.7 2.6 0.00 0.00 0.29 78 1014.9
20260901233147 83 173 1.7 2.6 0.00 0.00 0.29 79 1014.9
20260901232646 83 164 3.5 4.3 0.00 0.00 0.29 79 1014.9
20260901232146 83 140 2.6 4.3 0.00 0.00 0.29 78 1014.6
20260901231646 84 153 2.6 3.5 0.00 0.00 0.29 78 1014.9
20260901231147 84 165 2.6 3.5 0.00 0.00 0.29 80 1015.2
20260901230650 84 177 2.6 5.2 0.00 0.00 0.29 80 1015.2
20260901230146 83 165 2.6 4.3 0.00 0.00 0.29 80 1014.9
20260901225646 83 175 3.5 7.8 0.00 0.00 0.29 80 1015.2
20260901225146 83 171 2.6 3.5 0.00 0.00 0.29 85 1015.2
20260901224646 83 164 4.3 4.3 0.00 0.00 0.29 84 1015.2
20260901224150 83 177 4.3 6.1 0.00 0.00 0.29 85 1015.2
20260901223647 83 183 4.3 4.3 0.00 0.00 0.29 84 1015.2
20260901223146 83 184 3.5 5.2 0.00 0.00 0.29 84 1015.2
20260901222646 84 188 4.3 7.0 0.00 0.00 0.29 83 1015.2
20260901222147 84 168 4.3 5.2 0.00 0.00 0.29 81 1015.2
20260901221646 84 174 3.5 5.2 0.00 0.00 0.29 82 1015.2
20260901221146 84 179 4.3 4.3 0.00 0.00 0.29 81 1015.2
20260901220648 84 170 3.5 3.5 0.00 0.00 0.29 79 1014.9
20260901220146 84 76 0.9 6.1 0.00 0.00 0.29 79 1015.2
20260901215646 84 175 4.3 4.3 0.00 0.00 0.29 80 1014.9
20260901215147 84 187 2.6 3.5 0.00 0.00 0.29 81 1014.9
20260901214647 84 168 2.6 3.5 0.00 0.00 0.29 80 1015.2
20260901214147 84 175 5.2 5.2 0.00 0.00 0.29 79 1015.2
20260901213647 84 178 2.6 3.5 0.00 0.00 0.29 80 1015.2
20260901213146 84 178 3.5 4.3 0.00 0.00 0.29 79 1015.2
20260901212647 83 177 2.6 6.1 0.00 0.00 0.29 80 1015.2
20260901212146 84 187 1.7 2.6 0.00 0.00 0.29 78 1015.2
20260901211646 84 330 0.0 2.6 0.00 0.00 0.29 77 1015.2
20260901211147 84 215 0.9 2.6 0.00 0.00 0.29 78 1015.2
20260901210647 83 209 1.7 3.5 0.00 0.00 0.29 79 1015.2
20260901210152 84 164 1.7 3.5 0.00 0.00 0.29 79 1015.2
20260901205647 84 166 2.6 2.6 0.00 0.00 0.29 79 1015.2
20260901205146 84 58 2.6 2.6 0.00 0.00 0.29 79 1015.2